Location: Kitchener
(43.4500°N, 80.5000°W)
Time: 01:08:25
(UTC-05:00)

Daily predictions for brighter satellites

Satellite Brightness Start Highest point End
(mag) Time Altitude Azimuth Time Altitude Azimuth Time Altitude Azimuth
Cosmos 2369 Rocket 2.8 04:12:46 54° E 04:12:46 54° E 04:17:54 10° NNE
ADEOS II 2.6 04:15:07 10° NNE 04:19:23 54° NE 04:19:23 54° NE
Cosmos 1371 Rocket 4.2 04:32:01 65° E 04:32:01 65° E 04:37:02 10° NNE
Okean O Rocket 4.0 04:28:00 10° N 04:28:48 15° N 04:28:48 15° N
ATLAS CENTAUR R/B 3.1 04:35:03 71° W 04:35:37 76° SW 04:49:39 10° SE
USA 234 3.1 04:43:08 10° NE 04:49:40 82° NW 04:51:19 54° WSW
Cosmos 2266 Rocket 3.8 04:45:17 10° NNW 04:51:27 73° W 04:57:28 10° S
Cosmos 2263 4.1 04:51:26 50° SSW 04:52:56 82° ESE 04:58:35 10° NNE
COSMO-SKYMED 1 4.3 04:52:55 10° SE 04:56:49 33° ENE 05:00:44 10° N
CZ-4B R/B 3.3 04:51:23 10° N 04:56:42 57° WNW 04:56:42 57° WNW
ATLAS 5 CENTAUR R/B 2.0 04:58:27 51° S 04:59:33 70° ESE 05:04:41 10° NE
ERS-2 4.3 04:58:25 10° N 04:59:29 18° N 04:59:29 18° N
Cosmos 407 Rocket 3.6 04:59:32 10° NNW 05:04:56 81° ENE 05:10:16 10° SSE
Abrixas 4.3 05:06:59 29° ENE 05:06:59 29° ENE 05:08:35 10° ENE
Cosmos 1943 Rocket 2.2 05:03:56 24° SSW 05:07:20 76° ESE 05:12:53 10° NNE
Cosmos 972 Rocket 3.9 05:09:25 51° SW 05:10:33 68° WNW 05:15:57 10° NNE
Cosmos 1867 3.8 05:12:25 47° WNW 05:13:06 50° NW 05:18:26 10° NNE
Lacrosse 5 2.3 05:12:00 29° SSW 05:14:25 60° SE 05:19:25 10° NE
Meteor 2-10 Rocket 3.8 05:10:41 10° S 05:15:37 63° E 05:20:36 10° NNE
Sich 1 Rocket 3.5 05:12:12 10° N 05:16:47 79° W 05:21:16 10° S
CZ-4C R/B 3.6 05:13:22 10° S 05:18:07 36° ESE 05:23:24 10° NE
Tiangong 1 3.3 05:19:06 16° SSE 05:19:25 16° SSE 05:21:23 10° ESE
Okean-O 2.5 05:18:25 10° N 05:22:50 67° WNW 05:25:07 28° SSW
Cosmos 1908 Rocket 3.5 05:24:26 10° NNW 05:28:51 61° W 05:33:15 10° S
Cosmos 1190 Rocket 4.1 05:24:40 10° NNW 05:29:46 53° WSW 05:34:53 10° S
Meteor 1-31 Rocket 2.9 05:27:01 10° N 05:30:49 51° WNW 05:31:28 45° WSW
Cosmos 1140 Rocket 4.0 05:26:25 10° NNW 05:31:35 60° ENE 05:36:45 10° SSE
Cosmos 1244 Rocket 4.4 05:25:50 10° N 05:32:05 75° W 05:38:13 10° S
Okean 1-7 3.3 05:29:04 10° S 05:33:18 67° E 05:37:33 10° NNE
CZ-4B R/B 3.9 05:30:04 10° N 05:33:52 51° WNW 05:35:27 31° SW
Cosmos 1782 Rocket 3.5 05:29:37 10° N 05:34:08 88° E 05:38:35 10° S
Feng Yun 1-1 Rocket 4.3 05:29:37 10° N 05:35:24 63° WNW 05:41:13 10° SSW
SKYMED 2 3.4 05:40:27 10° S 05:44:46 76° WSW 05:49:08 10° NNW
Cosmos 921 Rocket 4.5 05:46:31 20° NW 05:46:31 20° NW 05:49:13 10° NNW
Cosmos 2056 Rocket 4.0 05:43:43 25° WSW 05:46:02 38° WNW 05:50:53 10° N
Cosmos 2219 3.6 05:41:25 10° NNW 05:47:06 66° ENE 05:52:41 10° SE
BREEZE M DEB (TANK) 4.2 05:38:29 20° W 05:48:44 63° NNW 05:53:22 10° ENE
Okean 2 Rocket 2.9 05:46:33 10° N 05:50:58 83° W 05:55:21 10° S
SL-08 R/B 4.5 05:44:52 10° N 05:51:12 83° W 05:57:32 10° S
NOAA 6 4.0 05:48:17 10° N 05:53:23 61° WNW 05:58:27 10° SSW
Cosmos 2227 Rocket 4.2 05:51:47 10° N 05:56:38 28° NE 06:01:27 10° ESE
Cosmos 2369 Rocket 3.3 05:54:36 21° W 05:56:44 26° NW 06:01:25 10° N
Cosmos 1954 Rocket 4.0 05:52:40 10° NNW 05:57:54 63° WSW 06:03:08 10° S
S3M 4.0 05:52:30 10° S 05:58:52 80° W 06:05:12 10° N
ADEOS II 3.5 05:56:05 10° NNW 05:59:33 18° WNW 06:00:20 17° WNW
Ariane Rocket 3.3 05:57:44 10° NNE 06:02:51 73° ESE 06:07:54 10° S
Cosmos 1420 Rocket 4.0 05:59:50 10° SSW 06:05:01 84° ESE 06:10:14 10° NNE
SL-12 R/B (Aux Motor) 4.1 06:04:26 20° WNW 06:06:25 55° SSW 06:08:27 10° SE
Thor Agena Rocket 4.4 06:02:46 10° SSW 06:07:11 27° W 06:11:35 10° NW
CZ-2C R/B 3.9 06:02:59 10° NNE 06:07:34 41° E 06:12:16 10° SSE
Cosmos 1553 Rocket 4.0 06:01:56 10° SSW 06:08:02 66° W 06:14:18 10° N
Lacrosse 5 rocket 3.3 06:06:46 10° NNW 06:09:23 18° NNE 06:11:59 10° ENE
Cosmos 1703 Rocket 4.2 06:05:40 10° SW 06:09:33 32° WNW 06:13:30 10° N
Cosmos 2151 Rocket 3.9 06:05:04 10° N 06:09:37 74° E 06:14:05 10° SSE
Cosmos 1656 Rocket 3.7 06:12:28 10° SW 06:18:05 64° WNW 06:23:45 10° NNE
SMAP 4.4 06:19:42 10° NNE 06:24:10 45° E 06:28:37 10° S
Cosmos 1452 Rocket 4.0 06:22:38 10° SW 06:27:34 40° WNW 06:32:33 10° N
Cosmos 1782 2.9 06:28:02 10° SSW 06:31:53 50° WNW 06:35:46 10° N
USA 234 4.1 06:26:22 10° NE 06:32:11 36° NNW 06:37:59 10° W
COSMO-SKYMED 1 3.7 06:29:34 10° SSW 06:33:01 23° W 06:36:30 10° NW
Cosmos 1741 Rocket 4.1 06:32:08 10° NNW 06:37:17 60° WSW 06:42:26 10° S
Cosmos 1709 Rocket 4.0 06:31:34 10° N 06:37:42 89° E 06:43:49 10° S
Abrixas 3.5 06:38:39 10° WNW 06:41:17 31° N 06:43:55 10° ENE
USA 81 4.4 06:38:02 10° SSW 06:43:04 44° W 06:48:08 10° N
Cosmos 2315 Rocket 4.2 06:37:51 10° S 06:44:13 87° E 06:50:37 10° N
ATLAS 5 CENTAUR R/B 3.2 06:40:53 10° W 06:44:48 23° NW 06:49:00 10° NNE
